World > North America > United States > South Carolina > Rocky Springs

Rocky Springs, SC Hourly Weather Conditions

Feedback E-mail the Weather

Quick WX

Rocky Springs, SC Weather Maps

°F °C°F °C
Rocky Springs Weather Map
UTC Time: 1/28/2023, 19:20
Your Time:

Rocky Springs, SC Regional Weather

Expires:202301282000;;396719
ASUS42 KCHS 281910
RWRCHS

Regional Weather Roundup
National Weather Service Charleston SC
200 PM EST SAT JAN 28 2023

NOTE: "fair" indicates few or no clouds below 12,000 feet with no
significant weather and/or obstructions to visibility.

Not all stations are quality controlled. Use data with caution,
especially dewpoint observations.


SCZ027-030-031-034>040-042>050-282000-
...Southeast South Carolina...
  
CITY           SKY/WX    TMP DP  RH WIND       PRES   REMARKS
N Charleston   MOSUNNY   59  25  27 VRB6      30.40F                  
Waterfront Prk   N/A     55  38  52 SE9       30.26F                  
Mount Pleasant FAIR      57  27  30 SE8       30.39F                  
Johns Island   FAIR      55  27  33 SE7       30.40F                  
Pinopolis        N/A     52  34  50 NW6         N/A                   
Moncks Corner  FAIR      57  30  35 W5        30.38F                  
Summerville    FAIR      59  27  29 VRB5      30.37F                  
Beaufort MCAS  MOSUNNY   59  30  33 MISG      30.40F                  
Beaufort Arpt  FAIR      55  30  38 N5        30.40S                  
Hilton Head Is SUNNY     55  32  41 CALM      30.41F                  
Walterboro     PTCLDY    57  27  30 CALM      30.39F                  
Allendale      FAIR      59 N/A N/A CALM      30.37F                  

...Southern Midlands and Pee Dee...
  
CITY           SKY/WX    TMP DP  RH WIND       PRES   REMARKS
Georgetown     FAIR      55  30  38 SE10      30.40F                  
Kingstree      NOT AVBL                                               
Orangeburg     PTSUNNY   57  28  33 VRB5      30.37F                  
Barnwell       FAIR      59  25  27 VRB7      30.37F                  
Aiken          FAIR      58  28  31 SW9       30.36F                  
Manning        FAIR      55  28  35 SW7       30.39F                  
Columbia       PTSUNNY   57  28  33 S7        30.35F                  
Sumter         PTSUNNY   58  28  31 S5        30.35F                  
Florence       MOSUNNY   58  26  29 SW8       30.37F                  
Myrtle Beach   MOSUNNY   52  35  52 SE10      30.40F                  
N Myrtle Beach MOSUNNY   53  34  48 S8        30.38F                  

$$
 

SKY/WX - Weather  TMP - Temperature  DP - Dew Point  RH - Humidity
WIND - Wind Direction/Speed PRES - Barometric Pressure VSB - Visibility
WCI - Wind Chill Index E13G22 Wind - East Wind 13 mph/Gusts of 22 mph

Trending Headlines

Trending Entertainment Headlines

Rocky Springs Radar Loop

Use the map search tool if you want to place a location marker on the radar map...

Rocky Springs Quick Facts

National Two Day Weather Forecast


E-mail the Rocky Springs Weather Forecast

Voice your opinion or tell us about page issues...